カタログに戻る

STARLINK-5998

運用中通信VLEO
NORAD 56468·PAYLOAD·🇺🇸 United States

打ち上げ May 10, 2023 から Vandenberg Space Force Base

Loading…

次のパス (今後24時間)

TLE

最新Source: CelesTrak SupGP

元期: Sep 14, 2026, 22:07 UTC

1 56468C 23064W   26257.92201389 -.00031155  00000+0 -26109-2 0  2573
2 56468  70.0027  27.1508 0003152 273.2361 163.0705 14.98346127    13

AllMySatでSTARLINK-5998をリアルタイム追跡

Download on the App Store